[[{"header":{"parameterUnit":"m.s-1","parameterCategory":1,"la1":30.2991,"la2":30.254,"lo1":-89.0895,"lo2":-89.0444,"dy":0.0017,"dx":0.0017,"nx":28,"ny":28,"refTime":"2025-01-29T03:00:00:Z","depth":0,"parameterNumber":2,"parameterNumberName":"U-component_of_WINDS"},"data":[0,0,0,0,0,0,0,0,0,0,0,0,0,0,0,0,0,0,0,0,0,0,0,0,0,0,0,0,0,0,0,0,0,0,0,0,0,0,0,0,0,0,0,0,0,0,0,0,0,0,0,0,0,0,0,0,0,0,1.192,1.1921,0,1.2009,1.201,1.2011,1.203,1.2029,1.2028,1.2028,1.212,1.2123,1.2126,0,0,0,0,0,0,0,0,0,0,0,0,0,1.1766,1.1769,1.192,1.1921,1.1922,1.2009,1.201,1.2011,1.203,1.2029,1.2028,1.2027,1.2119,1.2122,1.2126,0,0,0,0,0,0,0,0,0,0,0,0,0,1.1842,1.177,1.192,1.1942,1.1945,1.2008,1.201,1.2011,1.203,1.2029,1.2028,1.2027,1.2118,1.2122,1.2127,1.2175,0,0,1.2141,1.2143,0,0,0,0,0,0,0,0,1.1837,1.1847,1.1937,1.194,1.1944,1.2007,1.1989,1.2066,1.203,1.1998,1.2028,1.2026,1.2083,1.2091,1.2109,1.2179,1.2183,1.2141,1.2144,1.2146,1.2147,0,0,0,0,0,0,0,1.1832,1.1844,1.1955,1.1939,1.1942,1.1947,1.1957,1.2004,1.2045,1.2,1.2002,1.2012,1.2085,1.2105,1.2112,1.2185,1.2141,1.2145,1.2148,1.215,1.2298,1.2299,0,0,0,0,0,0,1.1823,1.1839,1.1952,1.1958,1.1887,1.1951,1.1962,1.1988,1.2044,1.2052,1.2013,1.2013,1.2098,1.2106,1.2115,1.2175,1.2146,1.215,1.2153,1.2296,1.2298,1.2299,0,0,0,0,0,0,1.182,1.1833,1.1949,1.1899,1.1914,1.1954,1.1984,1.199,1.201,1.2054,1.2061,1.2026,1.2097,1.2109,1.216,1.2178,1.2152,1.2156,1.2295,1.2297,1.2298,1.2294,0,0,0,0,0,0,1.1815,1.1832,1.185,1.1899,1.1917,1.1991,1.1985,1.1992,1.2018,1.2019,1.2068,1.2075,1.2097,1.2153,1.2164,1.2184,1.216,1.2294,1.2296,1.2298,1.2293,1.2296,1.2298,0,0,0,0,0,1.181,1.1846,1.1851,1.1865,1.1941,1.1993,1.2002,1.2026,1.2019,1.2039,1.2066,1.2074,1.2174,1.2158,1.2171,1.2192,1.2293,1.2295,1.2298,1.2292,1.2295,1.2298,0,0,0,0,0,0,1.1799,1.1853,1.1859,1.1912,1.1948,1.1996,1.202,1.2029,1.2068,1.2067,1.2095,1.2106,1.2155,1.2179,1.216,1.2242,1.2233,1.2238,1.2224,1.2228,1.223,1.2223,1.2164,0,0,0,0,0,1.1802,1.184,1.1885,1.1928,1.1945,1.198,1.2003,1.2018,1.2056,1.2071,1.2103,1.214,1.2179,1.2205,1.2244,1.2297,1.2307,1.2318,1.232,1.2322,1.2326,1.2355,1.236,1.2308,1.2308,1.2308,0,0,1.1811,1.1845,1.1867,1.1926,1.1956,1.1993,1.1992,1.2033,1.2061,1.2078,1.2127,1.2152,1.2195,1.2246,1.2271,1.2268,1.2343,1.2326,1.2327,1.233,1.2358,1.2363,1.2368,1.2309,1.2309,1.2309,0,0,1.1845,1.1875,1.1913,1.1942,1.1986,1.2009,1.2018,1.2064,1.2081,1.2131,1.2144,1.2179,1.2247,1.2276,1.23,1.2345,1.2353,1.2357,1.237,1.2397,1.2402,1.2405,1.242,1.2426,1.2361,1.2361,1.2361,0,1.185,1.1907,1.1932,1.1971,1.1997,1.2013,1.2052,1.2079,1.2134,1.2151,1.2147,1.2232,1.2262,1.232,1.2331,1.235,1.2361,1.2351,1.2399,1.2403,1.2407,1.2422,1.2427,1.2361,1.2361,1.2361,1.2361,0,1.191,1.195,1.1976,1.2027,1.2056,1.2095,1.2125,1.2151,1.2164,1.2187,1.2238,1.2274,1.232,1.2336,1.2349,1.2396,1.2392,1.2393,1.2385,1.2412,1.2426,1.2432,1.2361,1.2361,1.2361,1.2361,0,0,1.194,1.2004,1.2013,1.2036,1.2086,1.2117,1.2156,1.2201,1.2222,1.2259,1.2293,1.235,1.2351,1.2378,1.2395,1.2419,1.2451,1.2417,1.2418,1.2421,1.2504,1.2502,1.2508,1.2457,1.2458,1.2459,1.25,0,1.1979,1.205,1.2073,1.2132,1.2169,1.2185,1.2219,1.2253,1.2275,1.231,1.2335,1.2374,1.2373,1.2389,1.2414,1.2441,1.2468,1.2439,1.2488,1.2489,1.2476,1.2516,1.2515,1.2552,1.2506,1.2507,1.2507,0,1.2035,1.2072,1.2134,1.2178,1.2194,1.2225,1.2267,1.23,1.2339,1.2353,1.2383,1.2398,1.2439,1.2429,1.2487,1.2467,1.2488,1.2505,1.2507,1.2512,1.2499,1.2521,1.2564,1.2569,1.2517,1.2516,1.2515,0,1.2049,1.2115,1.216,1.218,1.2232,1.2253,1.2276,1.2314,1.2339,1.2376,1.2393,1.2435,1.2457,1.2489,1.2515,1.2505,1.257,1.2562,1.2583,1.2582,1.2595,1.2594,1.2641,1.261,1.261,1.261,1.261,0,1.209,1.2127,1.2167,1.2195,1.2237,1.2263,1.2304,1.2328,1.2361,1.2394,1.2411,1.2441,1.2473,1.2508,1.2528,1.2572,1.2583,1.2596,1.2601,1.2594,1.2592,1.2608,1.2605,1.2612,1.2611,1.2611,1.2611,0,1.2113,1.2141,1.2191,1.2237,1.2249,1.2278,1.2317,1.2345,1.2368,1.2409,1.242,1.2456,1.2498,1.2527,1.258,1.2594,1.2641,1.2646,1.2628,1.263,1.2649,1.2646,1.2708,1.2717,1.268,1.268,1.268,0,1.2137,1.2166,1.2214,1.2237,1.226,1.2297,1.2322,1.2349,1.2375,1.2421,1.2443,1.2485,1.2521,1.2586,1.2617,1.2658,1.2664,1.2682,1.267,1.2662,1.2663,1.2661,1.2663,1.2684,1.2684,1.2684,1.2685,0,1.2176,1.2188,1.2224,1.2265,1.2295,1.2328,1.2362,1.238,1.2413,1.2441,1.2483,1.2511,1.2565,1.2607,1.265,1.2674,1.2685,1.2688,1.2695,1.2688,1.2676,1.2682,1.2632,1.2687,1.2686,1.2686,1.2686,1.2686,1.2199,1.2225,1.2263,1.2303,1.2331,1.2362,1.239,1.2416,1.2451,1.2497,1.2511,1.2555,1.2593,1.2652,1.2677,1.2711,1.271,1.272,1.2722,1.2724,1.2723,1.2671,1.2719,1.2719,1.2719,1.2719,1.2719,0,1.2239,1.2264,1.23,1.2346,1.2377,1.2384,1.2421,1.2447,1.2485,1.2519,1.2553,1.2601,1.2642,1.2676,1.2718,1.2739,1.2745,1.2749,1.2747,1.2752,1.2723,1.2712,1.2743,1.2743,1.2743,1.2743,1.2743,1.2743,1.2262,1.2307,1.2323,1.2382,1.2407,1.2449,1.247,1.2498,1.2525,1.2578,1.2612,1.2634,1.2668,1.2712,1.2749,1.2758,1.2773,1.2776,1.2786,1.2757,1.2754,1.2752,1.2742,1.2779,1.2779,1.2812,1.2812,1.2813]},{"header":{"parameterUnit":"m.s-1","parameterCategory":1,"la1":30.2991,"la2":30.254,"lo1":-89.0895,"lo2":-89.0444,"dy":0.0017,"dx":0.0017,"nx":28,"ny":28,"refTime":"2025-01-29T03:00:00:Z","depth":0,"parameterNumber":3,"parameterNumberName":"V-component_of_WINDS"},"data":[0,0,0,0,0,0,0,0,0,0,0,0,0,0,0,0,0,0,0,0,0,0,0,0,0,0,0,0,0,0,0,0,0,0,0,0,0,0,0,0,0,0,0,0,0,0,0,0,0,0,0,0,0,0,0,0,0,0,1.4434,1.4433,0,1.4355,1.4354,1.4353,1.4324,1.4324,1.4324,1.4324,1.4238,1.4236,1.4233,0,0,0,0,0,0,0,0,0,0,0,0,0,1.4552,1.455,1.4434,1.4433,1.4432,1.4355,1.4354,1.4353,1.4324,1.4324,1.4324,1.4324,1.4239,1.4236,1.4233,0,0,0,0,0,0,0,0,0,0,0,0,0,1.449,1.455,1.4434,1.4408,1.4405,1.4356,1.4354,1.4353,1.4323,1.4324,1.4324,1.4325,1.424,1.4236,1.4232,1.4202,0,0,1.4221,1.4219,0,0,0,0,0,0,0,0,1.4493,1.4485,1.4413,1.441,1.4406,1.435,1.4364,1.4302,1.4323,1.4354,1.4324,1.4325,1.4275,1.4268,1.4252,1.4198,1.4194,1.4221,1.4218,1.4217,1.4216,0,0,0,0,0,0,0,1.4498,1.4489,1.4403,1.4412,1.4408,1.4398,1.439,1.4352,1.4313,1.4352,1.4349,1.4341,1.4273,1.4256,1.425,1.4193,1.4221,1.4217,1.4215,1.4213,1.4107,1.4107,0,0,0,0,0,0,1.4507,1.4493,1.4405,1.44,1.4452,1.4396,1.4386,1.4367,1.4313,1.4306,1.434,1.434,1.4262,1.4254,1.4247,1.4206,1.4217,1.4213,1.4211,1.4108,1.4107,1.4107,0,0,0,0,0,0,1.451,1.45,1.4408,1.4446,1.4433,1.4394,1.4372,1.4366,1.4349,1.4305,1.4297,1.4331,1.4262,1.4252,1.4213,1.4203,1.4211,1.4208,1.4109,1.4108,1.4107,1.4126,0,0,0,0,0,0,1.4513,1.4501,1.449,1.4446,1.4432,1.4378,1.4372,1.4364,1.4343,1.4341,1.4294,1.4286,1.4262,1.4219,1.421,1.4198,1.4205,1.4109,1.4108,1.4107,1.4126,1.4126,1.4126,0,0,0,0,0,1.4518,1.4497,1.449,1.4479,1.4418,1.4377,1.4369,1.4343,1.4342,1.433,1.4302,1.4288,1.4206,1.4215,1.4204,1.4191,1.411,1.4109,1.4107,1.4126,1.4126,1.4126,0,0,0,0,0,0,1.4539,1.4491,1.4482,1.4447,1.4417,1.4372,1.4356,1.4343,1.4311,1.431,1.4277,1.4266,1.423,1.4207,1.4218,1.4158,1.4157,1.4153,1.4175,1.4174,1.4174,1.418,1.4202,0,0,0,0,0,1.4541,1.4514,1.4472,1.4445,1.4431,1.4396,1.4378,1.436,1.4327,1.4313,1.4282,1.4248,1.4215,1.4193,1.416,1.4123,1.4111,1.4108,1.4108,1.4108,1.4105,1.4083,1.4081,1.4103,1.4103,1.4103,0,0,1.4542,1.4512,1.4497,1.4449,1.4424,1.4395,1.4386,1.4356,1.4333,1.4308,1.427,1.4246,1.4206,1.4167,1.4149,1.4147,1.4097,1.4107,1.4107,1.4104,1.4081,1.4079,1.4077,1.4102,1.4102,1.4102,0,0,1.4529,1.4505,1.448,1.4455,1.4417,1.4394,1.4388,1.4345,1.4329,1.4291,1.4271,1.4243,1.4186,1.4158,1.4137,1.4114,1.4099,1.4104,1.4103,1.4081,1.4079,1.4078,1.4068,1.4066,1.4101,1.4102,1.4102,0,1.4535,1.4493,1.4468,1.4439,1.4418,1.4396,1.4369,1.4345,1.4297,1.4282,1.4281,1.421,1.4181,1.4136,1.413,1.4114,1.4104,1.4109,1.4082,1.408,1.4078,1.4069,1.4066,1.4102,1.4102,1.4102,1.4102,0,1.4501,1.4472,1.4456,1.4413,1.439,1.4362,1.4331,1.431,1.4295,1.4272,1.4232,1.4197,1.4156,1.4144,1.4128,1.4096,1.4096,1.4089,1.4087,1.4077,1.4068,1.4064,1.4103,1.4103,1.4103,1.4103,0,0,1.4499,1.4443,1.4438,1.4418,1.4374,1.435,1.4321,1.4283,1.4265,1.4233,1.4206,1.4159,1.4153,1.4128,1.4109,1.409,1.4073,1.4085,1.4083,1.4083,1.4034,1.4038,1.4035,1.4063,1.4063,1.4062,1.4037,0,1.448,1.4429,1.4406,1.4364,1.4336,1.4314,1.4288,1.4258,1.4235,1.4207,1.4181,1.4148,1.4142,1.4127,1.4108,1.4079,1.4062,1.4081,1.4036,1.4035,1.4046,1.403,1.4035,1.4013,1.4033,1.4032,1.4032,0,1.4451,1.4421,1.4377,1.4337,1.4324,1.4302,1.4265,1.4238,1.4203,1.4188,1.4161,1.4142,1.4108,1.411,1.4062,1.4075,1.4055,1.4038,1.4036,1.403,1.4032,1.4022,1.4005,1.4002,1.4026,1.4027,1.4027,0,1.4453,1.4401,1.4368,1.4352,1.4304,1.4289,1.4268,1.4233,1.4212,1.4178,1.4164,1.4127,1.4106,1.4077,1.4048,1.4052,1.4002,1.4001,1.3987,1.3988,1.3976,1.3977,1.3955,1.3966,1.3966,1.3966,1.3966,0,1.4434,1.4407,1.4369,1.4348,1.4317,1.429,1.4259,1.4237,1.4206,1.4179,1.4158,1.4133,1.4097,1.4066,1.4043,1.4006,1.3997,1.3983,1.3977,1.3984,1.3986,1.397,1.397,1.3965,1.3965,1.3966,1.3966,0,1.443,1.4403,1.4366,1.4324,1.4313,1.4292,1.4256,1.4234,1.4211,1.4177,1.4168,1.4131,1.4094,1.4063,1.4014,1.3999,1.396,1.3953,1.3972,1.3969,1.3956,1.3957,1.3922,1.3915,1.3932,1.3932,1.3932,0,1.4419,1.4398,1.4355,1.4337,1.4317,1.4287,1.4266,1.4238,1.4216,1.4174,1.4156,1.4119,1.4087,1.4029,1.3996,1.3959,1.395,1.394,1.3944,1.3952,1.3948,1.395,1.3947,1.394,1.394,1.394,1.394,0,1.4401,1.4389,1.436,1.4326,1.4302,1.4273,1.4244,1.4229,1.4195,1.4171,1.4135,1.411,1.4061,1.4023,1.3982,1.3958,1.3942,1.3939,1.3933,1.394,1.3952,1.3944,1.3971,1.394,1.394,1.394,1.394,1.394,1.4392,1.4373,1.434,1.4308,1.4283,1.4257,1.4234,1.4209,1.4179,1.4138,1.4123,1.4085,1.4048,1.3992,1.3968,1.3937,1.3934,1.3927,1.3924,1.3923,1.3923,1.3958,1.3929,1.3929,1.3929,1.3929,1.3929,0,1.4373,1.4351,1.4322,1.4283,1.4257,1.4247,1.4214,1.4192,1.416,1.4129,1.4099,1.4056,1.4019,1.3984,1.3945,1.3927,1.3918,1.3917,1.3917,1.3912,1.3928,1.3936,1.3924,1.3924,1.3924,1.3924,1.3924,1.3924,1.436,1.4326,1.431,1.4264,1.4241,1.4205,1.4187,1.4162,1.4137,1.4091,1.4061,1.4039,1.4005,1.3964,1.3929,1.392,1.3905,1.3906,1.3894,1.391,1.3911,1.3912,1.3919,1.3904,1.3904,1.388,1.388,1.388]}]]